Location: Slanting_Bridge
(35.6330°N, 80.9830°W)
Time: 23:21:08
(UTC-05:00)

Amateur Radio Satellites - All Passes

Search period start: 17 December 2014 22:51
Search period end: 18 December 2014 22:51
Location: Slanting_Bridge, 35.6330°N, 80.9830°W

Satellite Date Start Highest point End Downlink Frequencies (MHz)
Time Altitude Azimuth
ANTELSAT 17 Dec 22:51:04 22:55:43 59° 101° (E) 23:00:23 437.575/2403.000
BEESAT 3 17 Dec 22:51:07 22:54:47 29° 54° (NE) 22:58:24 437.485
SO-50 17 Dec 22:54:30 22:58:18 26° 309° (NW) 23:02:13 436.795
ISS 17 Dec 22:54:50 22:57:31 24° 229° (SW) 23:00:12 145.825
TISAT 1 17 Dec 22:54:53 22:57:45 18° 68° (ENE) 23:00:37 437.305
DUCHIFAT 1 17 Dec 23:00:00 23:04:04 44° 99° (E) 23:08:08 145.980
CUBEBUG 1 17 Dec 23:01:01 23:05:24 83° 257° (WSW) 23:09:48 437.445
QB50P2 17 Dec 23:11:04 23:15:18 63° 101° (E) 23:19:32 145.880/145.840
DANDE 17 Dec 23:14:04 23:18:46 17° 275° (W) 23:23:48 436.750
BUGSAT 1 17 Dec 23:14:46 23:18:44 52° 100° (E) 23:22:42 437.445
POLYITAN 1 17 Dec 23:18:40 23:22:58 79° 102° (ESE) 23:27:15 437.675
NANOSAT C BR1 17 Dec 23:23:50 23:28:05 89° 104° (ESE) 23:32:21 145.865
BEESAT 2 17 Dec 23:27:41 23:31:51 66° 59° (ENE) 23:35:57 435.950
TIGRISAT 17 Dec 23:28:46 23:33:20 54° 286° (WNW) 23:37:55 435.000
ESTCUBE 1 17 Dec 23:29:25 23:33:37 37° 262° (W) 23:37:50 437.505/2401.250
QB50P1 17 Dec 23:37:44 23:41:56 62° 285° (WNW) 23:46:08 145.935-145.965
VELOX 1 17 Dec 23:42:27 23:43:11 10° 268° (W) 23:43:55 145.980
RS-15 17 Dec 23:43:09 23:52:39 32° 255° (WSW) 00:02:31 29.354- 29.394
ITUPSAT 1 17 Dec 23:50:12 23:51:55 12° 63° (ENE) 23:53:39 437.325
SWISSCUBE 17 Dec 23:50:28 23:52:44 13° 64° (ENE) 23:55:00 437.505
PCSat 17 Dec 23:51:20 23:56:39 54° 60° (ENE) 00:01:56 145.827
UNISAT 6 17 Dec 23:56:43 00:00:39 27° 290° (WNW) 00:04:36 437.425
M-CUBED/EXP-1 PRIME 18 Dec 00:05:28 00:07:54 14° 59° (ENE) 00:10:22 437.505
POPSAT HIP 1 18 Dec 00:06:26 00:10:06 28° 289° (WNW) 00:13:45 437.405
BEESAT 18 Dec 00:14:32 00:18:12 22° 68° (ENE) 00:21:53 436.000
AIST 2 18 Dec 00:17:25 00:21:42 78° 242° (WSW) 00:25:55 435.215
O/OREOS (USA 219) 18 Dec 00:21:02 00:23:35 15° 99° (E) 00:26:08 437.305
SPROUT 18 Dec 00:22:10 00:26:14 43° 261° (W) 00:30:20 437.525
YUBILEINY 18 Dec 00:23:31 00:32:14 76° 94° (E) 00:40:56 435.215
TISAT 1 18 Dec 00:29:34 00:33:20 31° 262° (W) 00:37:06 437.305
BEESAT 3 18 Dec 00:29:37 00:32:47 21° 249° (WSW) 00:35:55 437.485
ANTELSAT 18 Dec 00:29:52 00:31:58 13° 295° (WNW) 00:34:05 437.575/2403.000
DUCHIFAT 1 18 Dec 00:37:24 00:39:32 14° 294° (WNW) 00:41:39 145.980
BUGSAT 1 18 Dec 00:52:57 00:53:45 11° 295° (WNW) 00:54:32 437.445
AUBIESAT-1 18 Dec 01:14:17 01:18:58 64° 70° (ENE) 01:23:49 437.475
ITUPSAT 1 18 Dec 01:24:25 01:29:12 67° 258° (WSW) 01:34:00 437.325
SWISSCUBE 18 Dec 01:25:19 01:30:03 59° 259° (W) 01:34:48 437.505
PCSat 18 Dec 01:36:08 01:39:33 17° 256° (WSW) 01:42:59 145.827
M-CUBED/EXP-1 PRIME 18 Dec 01:37:34 01:42:16 66° 255° (WSW) 01:47:10 437.505
Oscar 19 18 Dec 01:38:59 01:44:05 54° 100° (E) 01:49:08 437.125/150
ITAMSAT 1 18 Dec 01:48:37 01:52:38 23° 95° (E) 01:56:38 435.822/435.867
BEESAT 18 Dec 01:51:30 01:55:49 33° 262° (W) 02:00:09 436.000
O/OREOS (USA 219) 18 Dec 01:58:24 02:02:35 40° 294° (WNW) 02:06:48 437.305
KKS-1 18 Dec 02:07:30 02:11:54 71° 76° (ENE) 02:16:19 437.445
STARS 18 Dec 02:10:41 02:14:54 49° 74° (ENE) 02:19:08 437.465
YUBILEINY 18 Dec 02:23:51 02:29:52 20° 292° (WNW) 02:35:55 435.215
AUBIESAT-1 18 Dec 02:52:22 02:54:16 12° 265° (W) 02:56:12 437.475
Gurwin Techsat 1B 18 Dec 03:04:21 03:09:41 79° 103° (ESE) 03:14:59 435.225
AO-7 18 Dec 03:08:45 03:13:43 17° 92° (E) 03:18:39 29.400- 29.500
Oscar 19 18 Dec 03:19:43 03:22:56 17° 295° (WNW) 03:26:08 437.125/150
ITAMSAT 1 18 Dec 03:27:27 03:32:10 37° 290° (WNW) 03:36:52 435.822/435.867
VERMONT LUNAR 18 Dec 03:28:49 03:31:49 26° 147° (SSE) 03:34:50 437.305
PHONESAT 2.4 18 Dec 03:28:52 03:31:20 17° 144° (SE) 03:33:49 2401.200-2431.200
HORYU 2 18 Dec 03:31:12 03:35:40 58° 101° (E) 03:40:06 437.375
AIST 1 18 Dec 03:33:11 03:36:32 22° 76° (ENE) 03:39:52
STARS 18 Dec 03:49:54 03:51:37 12° 268° (W) 03:53:21 437.465
GONETS M04 18 Dec 04:26:49 04:31:09 15° 78° (ENE) 04:35:29
MOZHAYETS 4 18 Dec 04:31:42 04:36:19 74° 76° (ENE) 04:40:59
PRISM 18 Dec 04:47:01 04:49:22 15° 66° (ENE) 04:51:43 437.425
Gurwin Techsat 1B 18 Dec 04:47:07 04:48:55 12° 298° (WNW) 04:50:43 435.225
AO-7 18 Dec 04:58:53 05:07:18 85° 288° (WNW) 05:15:39 29.400- 29.500
PHONESAT 2.4 18 Dec 05:06:05 05:09:42 88° 157° (SSE) 05:13:21 2401.200-2431.200
VERMONT LUNAR 18 Dec 05:06:29 05:09:59 66° 342° (NNW) 05:13:30 437.305
HORYU 2 18 Dec 05:10:02 05:11:48 12° 296° (WNW) 05:13:34 437.375
AIST 1 18 Dec 05:10:41 05:14:05 23° 271° (W) 05:17:28
JAS-2 18 Dec 05:32:48 05:38:30 80° 103° (ESE) 05:43:44 435.910
CUBESAT XI-V 18 Dec 05:47:02 05:51:10 32° 71° (ENE) 05:55:18 437.345
SO-50 18 Dec 05:48:35 05:51:40 16° 47° (NE) 05:54:44 436.795
Cubesat XI-IV 18 Dec 06:00:00 06:04:36 29° 97° (E) 06:09:10 437.490
GONETS M04 18 Dec 06:17:45 06:26:36 88° 95° (E) 06:35:30
PRISM 18 Dec 06:20:32 06:24:31 41° 261° (W) 06:28:32 437.425
STRAND 1 18 Dec 06:24:46 06:29:52 74° 75° (ENE) 06:34:58 437.568
CUTE-I 18 Dec 06:33:37 06:38:53 63° 101° (ESE) 06:44:08 437.470
PHONESAT 2.4 18 Dec 06:45:13 06:48:38 38° 354° (N) 06:52:04 2401.200-2431.200
VERMONT LUNAR 18 Dec 06:45:22 06:48:39 35° 358° (N) 06:51:56 437.305
AO-7 18 Dec 06:53:53 06:58:51 18° 306° (NW) 07:03:50 29.400- 29.500
JAS-2 18 Dec 07:20:59 07:22:38 11° 302° (WNW) 07:24:16 435.910
CUBESAT XI-V 18 Dec 07:25:01 07:28:36 22° 265° (W) 07:32:11 437.345
SO-50 18 Dec 07:27:46 07:32:38 65° 243° (WSW) 07:37:29 436.795
Cubesat XI-IV 18 Dec 07:40:01 07:44:35 30° 291° (WNW) 07:49:09 437.490
HO-68 18 Dec 07:44:17 07:46:31 12° 90° (E) 07:48:43 435.675
STRAND 1 18 Dec 08:08:43 08:09:31 10° 269° (W) 08:10:18 437.568
CUTE-I 18 Dec 08:15:30 08:18:23 15° 297° (WNW) 08:21:16 437.470
GOMX 1 18 Dec 08:17:13 08:19:22 13° 93° (E) 08:21:33 467.674
GONETS M04 18 Dec 08:19:20 08:24:34 17° 294° (WNW) 08:29:49
VERMONT LUNAR 18 Dec 08:23:52 08:27:21 55° 16° (NNE) 08:30:50 437.305
PHONESAT 2.4 18 Dec 08:24:14 08:27:45 45° 11° (NNE) 08:31:16 2401.200-2431.200
AAUSAT CUBESAT 2 18 Dec 08:39:49 08:42:25 16° 93° (E) 08:45:00 437.432
CANX-2 18 Dec 08:42:25 08:46:16 31° 97° (E) 08:50:05 2200.000
DOVE 4 18 Dec 08:53:59 08:57:52 24° 96° (E) 09:01:54 437.250
COMPASS 1 18 Dec 09:11:54 09:16:00 44° 99° (E) 09:20:03 437.405
BRITE-PL 18 Dec 09:12:23 09:17:03 73° 102° (ESE) 09:22:07 437.365/2234.400
CUTE 1.7 + AOD 2 18 Dec 09:13:16 09:17:35 67° 101° (E) 09:21:51 437.475
SEEDS 18 Dec 09:13:33 09:17:47 57° 100° (E) 09:21:59 437.485
DX 1 18 Dec 09:14:24 09:16:44 14° 94° (E) 09:19:02 434.975-435.025
MaSat-1 18 Dec 09:17:07 09:19:29 49° 112° (ESE) 09:21:44 437.345
UNISAT 6 18 Dec 09:17:43 09:20:22 16° 66° (ENE) 09:23:04 437.425
POPSAT HIP 1 18 Dec 09:23:40 09:24:50 11° 65° (ENE) 09:26:01 437.405
HO-68 18 Dec 09:27:52 09:35:03 84° 105° (ESE) 09:42:12 435.675
CINEMA 3 18 Dec 09:39:12 09:43:43 43° 99° (E) 09:48:23 145.822/145.860
Oscar 11 18 Dec 09:40:16 09:44:23 40° 98° (E) 09:48:28 145.826/435.025
CUBEBUG 2 18 Dec 09:41:07 09:45:04 27° 96° (E) 09:49:03 437.445
DELFI C3 18 Dec 09:45:07 09:48:57 36° 98° (E) 09:52:45 145.870
UKube-1 18 Dec 09:47:07 09:51:03 33° 98° (E) 09:54:58 .
ANTELSAT 18 Dec 09:47:52 09:51:47 35° 72° (ENE) 09:55:49 437.575/2403.000
DUCHIFAT 1 18 Dec 09:50:42 09:54:01 23° 70° (ENE) 09:57:21 145.980
HUMSAT D 18 Dec 09:50:46 09:52:38 13° 92° (E) 09:54:31 437.325/437.525
GOMX 1 18 Dec 09:53:02 09:57:40 58° 285° (WNW) 10:02:37 467.674
VELOX 1 18 Dec 09:57:27 09:59:45 14° 93° (E) 10:02:03 145.980
QB50P2 18 Dec 10:01:46 10:05:30 32° 72° (ENE) 10:09:16 145.880/145.840
VERMONT LUNAR 18 Dec 10:02:21 10:05:37 35° 211° (SSW) 10:08:53 437.305
BUGSAT 1 18 Dec 10:02:51 10:06:14 25° 71° (ENE) 10:09:36 437.445
PHONESAT 2.4 18 Dec 10:02:57 10:06:32 55° 207° (SSW) 10:10:06 2401.200-2431.200
CUSAT 1 18 Dec 10:03:04 10:06:13 63° 95° (E) 10:10:20 437.405
ZACube-1 18 Dec 10:03:27 10:07:34 33° 98° (E) 10:11:43 437.345
POLYITAN 1 18 Dec 10:09:24 10:13:19 39° 73° (ENE) 10:17:15 437.675
NANOSAT C BR1 18 Dec 10:13:59 10:17:58 44° 73° (ENE) 10:21:59 145.865
AAUSAT CUBESAT 2 18 Dec 10:14:18 10:18:10 35° 287° (WNW) 10:22:01 437.432
CANX-2 18 Dec 10:18:52 10:21:58 20° 291° (WNW) 10:25:03 2200.000
UWE-3 18 Dec 10:24:31 10:29:06 72° 101° (ESE) 10:33:45 435.000/436.395/437.385
TIGRISAT 18 Dec 10:24:43 10:29:01 86° 257° (WSW) 10:33:26 435.000
QB50P1 18 Dec 10:27:42 10:31:53 66° 75° (ENE) 10:36:04 145.935-145.965
FUNcube-1 18 Dec 10:30:43 10:35:14 70° 101° (ESE) 10:39:48 145.935
DOVE 4 18 Dec 10:31:24 10:35:34 31° 288° (WNW) 10:39:56 437.250
O/OREOS (USA 219) 18 Dec 10:32:35 10:35:52 20° 61° (ENE) 10:39:09 437.305
AISAT 18 Dec 10:37:26 10:41:40 42° 99° (E) 10:45:52 437.250
YUBILEINY 18 Dec 10:38:01 10:45:34 32° 73° (ENE) 10:53:03 435.215
DANDE 18 Dec 10:42:10 10:45:09 43° 284° (WNW) 10:48:58 436.750
DX 1 18 Dec 10:49:02 10:53:07 41° 287° (WNW) 10:57:12 434.975-435.025
COMPASS 1 18 Dec 10:49:11 10:51:17 14° 293° (WNW) 10:53:23 437.405
SEEDS 18 Dec 10:51:55 10:53:05 11° 295° (WNW) 10:54:14 437.485
UNISAT 6 18 Dec 10:52:46 10:56:48 39° 262° (W) 11:00:56 437.425
CUBEBUG 1 18 Dec 10:53:53 10:57:16 22° 96° (E) 11:00:39 437.445
BRITE-PL 18 Dec 10:54:13 10:55:04 10° 294° (WNW) 10:55:56 437.365/2234.400
POPSAT HIP 1 18 Dec 10:56:07 11:00:14 54° 260° (W) 11:04:22 437.405
CINEMA 3 18 Dec 11:17:28 11:20:35 18° 292° (WNW) 11:23:46 145.822/145.860
Oscar 11 18 Dec 11:17:34 11:20:11 16° 293° (WNW) 11:22:48 145.826/435.025
HO-68 18 Dec 11:17:38 11:21:50 17° 302° (WNW) 11:26:03 435.675
CUBEBUG 2 18 Dec 11:17:48 11:21:37 26° 290° (WNW) 11:25:30 437.445
DELFI C3 18 Dec 11:21:30 11:23:53 15° 293° (WNW) 11:26:15 145.870
50 SAT 18 Dec 11:22:50 11:26:56 60° 285° (WNW) 11:31:01 437.505
UKube-1 18 Dec 11:23:59 11:26:56 18° 293° (WNW) 11:29:53 .
HUMSAT D 18 Dec 11:24:29 11:28:38 47° 286° (WNW) 11:32:48 437.325/437.525
ESTCUBE 1 18 Dec 11:24:59 11:29:24 56° 100° (E) 11:33:48 437.505/2401.250
ANTELSAT 18 Dec 11:25:52 11:28:41 17° 267° (W) 11:31:34 437.575/2403.000
DUCHIFAT 1 18 Dec 11:26:21 11:29:45 24° 264° (W) 11:33:11 145.980
VELOX 1 18 Dec 11:32:19 11:36:31 44° 287° (WNW) 11:40:42 145.980
BUGSAT 1 18 Dec 11:38:32 11:41:40 21° 264° (W) 11:44:47 437.445
QB50P2 18 Dec 11:38:39 11:41:28 17° 266° (W) 11:44:17 145.880/145.840
ZACube-1 18 Dec 11:40:24 11:43:41 20° 291° (WNW) 11:47:01 437.345
POLYITAN 1 18 Dec 11:47:11 11:49:24 14° 267° (W) 11:51:38 437.675
RS-15 18 Dec 11:49:34 12:00:09 56° 111° (ESE) 12:10:39 29.354- 29.394
NANOSAT C BR1 18 Dec 11:52:16 11:54:02 12° 267° (W) 11:55:50 145.865
UWE-3 18 Dec 12:04:25 12:05:02 10° 296° (WNW) 12:05:38 435.000/436.395/437.385
FUNcube-1 18 Dec 12:10:24 12:10:59 10° 295° (WNW) 12:11:35 145.935
O/OREOS (USA 219) 18 Dec 12:11:14 12:15:19 34° 256° (WSW) 12:19:25 437.305
SPROUT 18 Dec 12:11:56 12:15:57 38° 98° (E) 12:19:58 437.525
AISAT 18 Dec 12:15:19 12:17:54 15° 294° (WNW) 12:20:30 437.250
TISAT 1 18 Dec 12:17:07 12:21:12 48° 100° (E) 12:25:17 437.305
CUBEBUG 1 18 Dec 12:29:57 12:33:35 26° 290° (WNW) 12:37:11 437.445
YUBILEINY 18 Dec 12:34:19 12:42:32 49° 271° (W) 12:50:45 435.215
BEESAT 3 18 Dec 12:45:54 12:46:55 11° 107° (ESE) 12:47:57 437.485
Gurwin Techsat 1B 18 Dec 12:47:47 12:48:37 10° 61° (ENE) 12:49:27 435.225
Oscar 19 18 Dec 12:52:54 12:57:55 57° 73° (ENE) 13:02:58 437.125/150
ITAMSAT 1 18 Dec 13:03:51 13:08:06 26° 68° (ENE) 13:12:22 435.822/435.867
ESTCUBE 1 18 Dec 13:03:58 13:05:45 12° 295° (WNW) 13:07:32 437.505/2401.250
BEESAT 2 18 Dec 13:20:45 13:24:10 26° 112° (ESE) 13:27:37 435.950
M-CUBED/EXP-1 PRIME 18 Dec 13:26:12 13:28:10 13° 95° (E) 13:30:03 437.505
ITUPSAT 1 18 Dec 13:28:23 13:32:52 39° 99° (E) 13:37:18 437.325
SWISSCUBE 18 Dec 13:28:55 13:33:29 44° 99° (E) 13:38:00 437.505
SPROUT 18 Dec 13:49:07 13:51:42 16° 293° (WNW) 13:54:17 437.525
JUGNU 18 Dec 13:49:45 13:53:12 16° 174° (S) 13:56:39 437.505
BEESAT 18 Dec 13:54:19 13:59:06 79° 103° (ESE) 14:03:51 436.000
TISAT 1 18 Dec 13:54:47 13:56:35 13° 294° (WNW) 13:58:22 437.305
ISS 18 Dec 13:56:49 13:59:56 41° 133° (SE) 14:03:04 145.825
RS-15 18 Dec 14:02:46 14:12:47 40° 313° (NW) 14:22:55 29.354- 29.394
KKS-1 18 Dec 14:02:54 14:05:53 17° 94° (E) 14:08:52 437.445
AO-7 18 Dec 14:05:06 14:10:43 21° 55° (NE) 14:16:21 29.400- 29.500
STARS 18 Dec 14:05:56 14:07:31 12° 92° (E) 14:09:06 437.465
AIST 2 18 Dec 14:13:00 14:17:01 46° 115° (ESE) 14:21:07 435.215
BEESAT 3 18 Dec 14:20:34 14:24:34 54° 302° (WNW) 14:28:38 437.485
Gurwin Techsat 1B 18 Dec 14:22:27 14:27:46 88° 256° (WSW) 14:33:06 435.225
HORYU 2 18 Dec 14:27:04 14:31:09 37° 72° (ENE) 14:35:16 437.375
PCSat 18 Dec 14:29:46 14:35:10 88° 295° (WNW) 14:40:37 145.827
Oscar 19 18 Dec 14:34:56 14:37:34 14° 268° (W) 14:40:14 437.125/150
AUBIESAT-1 18 Dec 14:35:22 14:39:44 84° 107° (ESE) 14:43:42 437.475
ITAMSAT 1 18 Dec 14:42:49 14:47:25 32° 262° (W) 14:52:03 435.822/435.867
SRMSAT 18 Dec 14:48:52 14:51:53 14° 171° (S) 14:54:54 437.500
BEESAT 2 18 Dec 14:58:56 15:02:20 25° 307° (NW) 15:05:47 435.950
M-CUBED/EXP-1 PRIME 18 Dec 14:59:18 15:03:30 44° 292° (WNW) 15:07:20 437.505
ITUPSAT 1 18 Dec 15:07:07 15:10:25 19° 293° (WNW) 15:13:43 437.325
SWISSCUBE 18 Dec 15:07:57 15:10:57 17° 294° (WNW) 15:13:56 437.505
ISS 18 Dec 15:34:08 15:36:38 20° 329° (NNW) 15:39:09 145.825
JUGNU 18 Dec 15:37:54 15:41:29 16° 184° (S) 15:45:03 437.505
KKS-1 18 Dec 15:38:31 15:42:36 36° 288° (WNW) 15:46:41 437.445
STARS 18 Dec 15:39:56 15:44:15 52° 286° (WNW) 15:48:34 437.465
JAS-2 18 Dec 15:40:18 15:46:47 31° 67° (ENE) 15:52:53 435.910
AIST 2 18 Dec 15:53:08 15:55:52 17° 311° (NW) 15:58:38 435.215
AO-7 18 Dec 15:54:10 16:02:29 83° 253° (WSW) 16:10:53 29.400- 29.500
AIST 1 18 Dec 16:00:40 16:03:20 16° 87° (E) 16:06:00
HORYU 2 18 Dec 16:05:00 16:07:54 17° 266° (W) 16:10:50 437.375
PCSat 18 Dec 16:17:00 16:19:21 13° 314° (NW) 16:21:42 145.827
RS-15 18 Dec 16:24:25 16:29:35 14° 345° (NNW) 16:34:49 29.354- 29.394
MOZHAYETS 4 18 Dec 16:30:50 16:34:26 22° 95° (E) 16:37:59
GONETS M04 18 Dec 16:32:19 16:40:20 38° 75° (ENE) 16:48:15
SRMSAT 18 Dec 16:36:39 16:40:18 17° 181° (S) 16:43:57 437.500
Cubesat XI-IV 18 Dec 17:19:10 17:24:01 37° 70° (ENE) 17:28:52 437.490
JAS-2 18 Dec 17:23:57 17:31:28 51° 260° (W) 17:38:31 435.910
JUGNU 18 Dec 17:28:29 17:29:43 11° 194° (SSW) 17:30:57 437.505
AIST 1 18 Dec 17:36:38 17:40:39 34° 281° (WNW) 17:44:40
CUTE-I 18 Dec 17:52:35 17:57:53 77° 75° (ENE) 18:03:13 437.470
AO-7 18 Dec 17:52:39 17:56:16 13° 269° (W) 17:59:54 29.400- 29.500
PRISM 18 Dec 18:06:44 18:10:30 33° 98° (E) 18:14:14 437.425
MOZHAYETS 4 18 Dec 18:07:36 18:11:38 30° 289° (WNW) 18:15:37
SRMSAT 18 Dec 18:26:14 18:28:42 13° 191° (SSW) 18:31:10 437.500
GONETS M04 18 Dec 18:29:07 18:37:04 41° 273° (W) 18:44:59
STRAND 1 18 Dec 18:38:46 18:43:17 31° 97° (E) 18:47:45 437.568
RS-15 18 Dec 18:42:17 18:48:54 17° 24° (NNE) 18:55:38 29.354- 29.394
MaSat-1 18 Dec 18:51:06 18:53:13 26° 64° (ENE) 18:55:27 437.345
Cubesat XI-IV 18 Dec 18:59:55 19:04:08 24° 265° (W) 19:08:23 437.490
CUBESAT XI-V 18 Dec 19:23:37 19:28:11 68° 284° (WNW) 19:32:44 437.345
CANX-2 18 Dec 19:33:55 19:36:35 16° 68° (ENE) 19:39:15 2200.000
CUTE-I 18 Dec 19:37:27 19:38:27 11° 269° (W) 19:39:27 437.470
DANDE 18 Dec 19:42:01 19:47:08 19° 70° (ENE) 19:52:37 436.750
PRISM 18 Dec 19:43:04 19:45:45 17° 293° (WNW) 19:48:25 437.425
HO-68 18 Dec 19:53:01 19:59:48 47° 68° (ENE) 20:06:35 435.675
DOVE 4 18 Dec 19:58:56 20:01:16 15° 67° (ENE) 20:03:36 437.250
COMPASS 1 18 Dec 20:01:27 20:04:41 22° 70° (ENE) 20:07:56 437.405
SEEDS 18 Dec 20:03:30 20:07:06 28° 71° (ENE) 20:10:43 437.485
CUTE 1.7 + AOD 2 18 Dec 20:03:44 20:07:31 32° 72° (ENE) 20:11:21 437.475
STRAND 1 18 Dec 20:18:07 20:22:18 26° 292° (WNW) 20:26:28 437.568
BRITE-PL 18 Dec 20:21:19 20:25:29 57° 75° (ENE) 20:29:33 437.365/2234.400
ISS 18 Dec 20:27:56 20:30:13 17° 29° (NNE) 20:32:30 145.825
DELFI C3 18 Dec 20:32:01 20:34:41 17° 68° (ENE) 20:37:21 145.870
Oscar 11 18 Dec 20:32:56 20:36:16 22° 69° (ENE) 20:39:37 145.826/435.025
CUBEBUG 2 18 Dec 20:38:29 20:40:50 15° 67° (ENE) 20:43:12 437.445
CINEMA 3 18 Dec 20:39:24 20:42:48 25° 70° (ENE) 20:46:15 145.822/145.860
UKube-1 18 Dec 20:40:09 20:43:23 21° 68° (ENE) 20:46:38 .
CUSAT 1 18 Dec 20:42:29 20:50:05 57° 79° (E) 20:58:26 437.405
RS-15 18 Dec 20:53:51 21:04:48 52° 53° (NE) 21:16:11 29.354- 29.394
ZACube-1 18 Dec 20:58:07 21:00:56 18° 68° (ENE) 21:03:47 437.345
GOMX 1 18 Dec 20:59:05 21:03:15 71° 259° (WSW) 21:07:23 467.674
AAUSAT CUBESAT 2 18 Dec 21:02:09 21:06:20 78° 258° (WSW) 21:10:34 437.432
CANX-2 18 Dec 21:08:16 21:12:11 36° 262° (W) 21:16:09 2200.000
UWE-3 18 Dec 21:19:32 21:23:22 38° 73° (ENE) 21:27:17 435.000/436.395/437.385
DANDE 18 Dec 21:23:25 21:31:08 88° 263° (W) 21:39:52 436.750
FUNcube-1 18 Dec 21:24:24 21:28:11 35° 72° (ENE) 21:32:03 145.935
AISAT 18 Dec 21:33:16 21:37:01 27° 70° (ENE) 21:40:45 437.250
DOVE 4 18 Dec 21:34:54 21:38:44 36° 262° (W) 21:42:34 437.250
COMPASS 1 18 Dec 21:36:43 21:40:15 26° 264° (W) 21:43:48 437.405
SO-50 18 Dec 21:39:32 21:44:01 85° 119° (ESE) 21:48:41 436.795
SEEDS 18 Dec 21:39:43 21:42:53 20° 265° (W) 21:46:05 437.485
CUTE 1.7 + AOD 2 18 Dec 21:40:39 21:43:30 17° 266° (W) 21:46:22 437.475
DX 1 18 Dec 21:41:28 21:45:48 71° 258° (WSW) 21:50:08 434.975-435.025
HO-68 18 Dec 21:41:33 21:47:37 29° 263° (W) 21:53:42 435.675
ANTELSAT 18 Dec 21:46:10 21:46:35 10° 91° (E) 21:46:59 437.575/2403.000
CUBEBUG 1 18 Dec 21:48:47 21:51:04 14° 66° (ENE) 21:53:22 437.445
ISS 18 Dec 22:03:49 22:07:00 49° 226° (SW) 22:10:09 145.825
DELFI C3 18 Dec 22:05:59 22:09:40 32° 263° (W) 22:13:24 145.870
50 SAT 18 Dec 22:08:17 22:12:11 54° 75° (ENE) 22:16:08 437.505
Oscar 11 18 Dec 22:08:36 22:12:16 27° 264° (W) 22:15:58 145.826/435.025
CUBEBUG 2 18 Dec 22:13:19 22:17:11 38° 262° (W) 22:21:07 437.445
HUMSAT D 18 Dec 22:13:41 22:17:47 83° 77° (ENE) 22:21:57 437.325/437.525
UKube-1 18 Dec 22:15:35 22:19:21 29° 263° (W) 22:23:07 .
CINEMA 3 18 Dec 22:16:50 22:19:58 21° 265° (W) 22:23:09 145.822/145.860
QB50P1 18 Dec 22:17:48 22:19:59 14° 93° (E) 22:22:10 145.935-145.965
TIGRISAT 18 Dec 22:19:55 22:23:50 26° 96° (E) 22:27:45 435.000
ESTCUBE 1 18 Dec 22:22:02 22:26:11 36° 72° (ENE) 22:30:21 437.505/2401.250
CUSAT 1 18 Dec 22:26:20 22:32:50 30° 272° (W) 22:39:49 437.405
VELOX 1 18 Dec 22:27:00 22:31:25 71° 258° (WSW) 22:35:50 145.980
ZACube-1 18 Dec 22:33:22 22:37:03 31° 263° (W) 22:40:49 437.345
AIST 2 18 Dec 22:38:50 22:41:22 15° 48° (NE) 22:43:52 435.215
BEESAT 3 18 Dec 22:43:10 22:47:02 36° 55° (NE) 22:50:50 437.485
